Home   Weather   Linden   Past weeks
Flag for USA

Past Weather in Linden, New Jersey, USA — Yesterday and Last 2 Weeks

Now
39 °F

Passing clouds.


Feels Like: 33 °F
Forecast: 45 / 36 °F
Wind: 9 mph from Southwest

Location: Newark International Airport

Current Time: Jan 26, 2020 at 1:43:43 am

Latest Report: Jan 26, 2020 at 12:51 am


Visibility: 10 mi

Pressure: 29.79 "Hg

Humidity: 89%

Dew Point: 36 °F

Location of LindenLocation

Past Weather in Linden — Graph

°F

Linden Temperature Yesterday

Maximum temperature yesterday: 52 °F (at 3:51 pm)
Minimum temperature yesterday: 39 °F (at 7:51 am)
Average temperature yesterday: 44 °F

High & Low Weather Summary for the Past Weeks

 TemperatureHumidityPressure
High70 °F (Jan 11, 12:51 pm)100% (Jan 14, 8:55 am)30.69 "Hg (Jan 14, 8:55 am)
Low20 °F (Jan 18, 1:51 am)19% (Jan 20, 2:51 pm)29.69 "Hg (Jan 19, 3:51 am)
Average40 °F63%30.21 "Hg
* Reported Jan 10 11:51 pm — Jan 25 11:51 pm, Linden. Weather by CustomWeather, © 2020

Note: Actual official high and low records may vary slightly from our data, if they occured in-between our weather recording intervals... More about our weather records

Linden Weather History for the Previous 24 Hours

Scroll right to see more
 ConditionsComfort  
Time TempWeatherWind HumidityBarometerVisibility
11:51 pm
Sat, Jan 25
41 °FClear.7 mph86%29.79 "Hg10 mi
10:51 pm42 °FPassing clouds.7 mph85%29.79 "Hg10 mi
9:51 pm44 °FPassing clouds.7 mph85%29.78 "Hg10 mi
9:35 pm44 °FPassing clouds.7 mph85%29.79 "Hg10 mi
9:14 pm45 °FPassing clouds.8 mph86%29.79 "Hg10 mi
8:51 pm44 °FPassing clouds.6 mph89%29.78 "Hg10 mi
7:51 pm46 °FOvercast.20 mph89%29.77 "Hg10 mi
6:51 pm48 °FLow clouds.10 mph93%29.76 "Hg10 mi
5:51 pm52 °FOvercast.13 mph89%29.74 "Hg10 mi
5:20 pm51 °FOvercast.3 mph92%29.74 "Hg8 mi
4:51 pm51 °FLight rain. Mostly cloudy.5 mph96%29.74 "Hg8 mi
4:07 pm52 °FMostly cloudy.6 mph93%29.74 "Hg10 mi
3:51 pm52 °FCloudy.7 mph93%29.75 "Hg10 mi
3:06 pm50 °FRain. Fog.8 mph93%29.77 "Hg3 mi
2:51 pm49 °FHeavy rain. Fog.7 mph97%29.79 "Hg2 mi
1:59 pm49 °FHeavy rain. Fog.16 mph93%29.77 "Hg1 mi
1:15 pm49 °FRain. Fog.22 mph93%29.79 "Hg2 mi
12:51 pm49 °FRain. Fog.12 mph93%29.81 "Hg3 mi
11:51 am45 °FRain. Fog.18 mph93%29.87 "Hg3 mi
10:51 am43 °FLight rain. Fog.13 mph93%29.98 "Hg3 mi
9:51 am42 °FLight rain. Fog.16 mph92%30.01 "Hg2 mi
9:27 am41 °FLight rain. Fog.12 mph93%30.02 "Hg2 mi
8:51 am40 °FLight rain. Fog.12 mph89%30.07 "Hg5 mi
7:51 am39 °FLow clouds.14 mph89%30.09 "Hg7 mi
7:16 am40 °FLow clouds.14 mph86%30.11 "Hg10 mi
6:51 am40 °FOvercast.15 mph86%30.10 "Hg10 mi
5:51 am40 °FOvercast.10 mph86%30.11 "Hg10 mi
5:26 am40 °FMostly cloudy.12 mph86%30.13 "Hg10 mi
4:51 am40 °FMostly cloudy.12 mph83%30.13 "Hg10 mi
3:51 am40 °FOvercast.9 mph83%30.15 "Hg10 mi
2:51 am40 °FPassing clouds.13 mph83%30.19 "Hg10 mi
1:51 am40 °FPartly cloudy.15 mph80%30.21 "Hg10 mi
Weather by CustomWeather, © 2020

See weather overview

Advertising